Location: Albany
(35.0000°S, 118.0000°E)
Time: 13:19:52
(UTC-04:00)

Vanguard 3 - Visible Passes

Search period start: 26 September 2016 00:00
Search period end: 06 October 2016 00:00
Orbit: 508 x 3266 km, 33.4° (Epoch: 25 September)

Date Brightness Start Highest point End Pass type
(mag) Time Alt. Az. Time Alt. Az. Time Alt. Az.
26 Sep 8.4 07:46:10 10° W 07:50:43 35° NNW 07:53:33 25° NNE visible
27 Sep 7.6 06:33:24 10° W 06:37:23 46° NNW 06:43:18 10° ENE visible
27 Sep 9.3 08:45:14 10° WNW 08:48:53 20° NNW 08:48:53 20° NNW visible
28 Sep 8.6 07:31:53 10° WNW 07:35:52 27° NNW 07:39:38 16° NNE visible
29 Sep 9.6 08:31:47 10° NW 08:34:35 14° NNW 08:35:02 13° NNW visible
30 Sep 8.9 07:17:46 10° WNW 07:21:02 19° NNW 07:25:17 10° NNE visible
02 Oct 9.2 07:04:05 10° NW 07:06:11 13° NNW 07:08:37 10° N visible
